celcom.com.my alexa rank chart, celcom.com.my alexa rank daily changes

celcom.com.my alexa rank chart, celcom.com.my alexa rank daily changes

celcom.com.my
Actual rank:
24 575

RANK HISTORY

Date Rank Diff
2017/09/19 24 575 +61
2017/09/18 24 514 +100
2017/09/17 24 414 +81
2017/09/16 24 333 +37
2017/09/15 24 296 -172
2017/09/14 24 468 -65
2017/09/13 24 533 -130
2017/09/12 24 663 +70
2017/09/11 24 593 +198
2017/09/10 24 395 -59
2017/09/09 24 454 -212
2017/09/08 24 666 -233
2017/09/07 24 899 -617
2017/09/06 25 516 +11
2017/09/05 25 505 +51
2017/09/04 25 454 +214
2017/09/03 25 240 +123
2017/09/02 25 117 +252
2017/09/01 24 865 -81
2017/08/31 24 946 +164
2017/08/30 24 782 -20
2017/08/29 24 802 +336
2017/08/28 24 466 +257
2017/08/27 24 209 +213
2017/08/26 23 996 -143
2017/08/25 24 139 -41
2017/08/24 24 180 -147
2017/08/23 24 327 +16
2017/08/22 24 311 +127
2017/08/21 24 184 +130
2017/08/20 24 054 -52
2017/08/19 24 106 +83
2017/08/18 24 023 +55
2017/08/17 23 968 -26
2017/08/16 23 994 +42
2017/08/15 23 952 +212
2017/08/14 23 740 +82
2017/08/13 23 658 +4
2017/08/12 23 654 +249
2017/08/11 23 405 -159
2017/08/10 23 564 -72
2017/08/09 23 636 -44
2017/08/08 23 680 +261
2017/08/07 23 419 +335
2017/08/06 23 084 +231
2017/08/05 22 853 +225
2017/08/04 22 628 +124
2017/08/03 22 504 -35
2017/08/02 22 539 -66
2017/08/01 22 605 +61
2017/07/31 22 544 -118
2017/07/30 22 662 -99
2017/07/29 22 761 -472
2017/07/28 23 233 -445
2017/07/27 23 678 -647
2017/07/26 24 325 +18
2017/07/25 24 307 +290
2017/07/24 24 017 +287
2017/07/23 23 730 +80
2017/07/22 23 650 +327
2017/07/21 23 323

WIDGET FOR YOUR SITE

DOMAINS WITH THE NEAREST RANK

Domain Rank
naslovi.net 24 570
colourbox.com 24 571
codewars.com 24 572
studyrama.com 24 573
moph.go.th 24 574
celcom.com.my 24 575
youtubedownloaderhd.com 24 576
interesnoznat.com 24 577
bradesconetempresa.b.br 24 578
hentai4daily.com 24 579
platoweb.com 24 580

DOMAINS WITH THE NEAREST RANK BY TLD .com.my

Domain Rank
bharian.com.my 22 126
tripadvisor.com.my 22 976
rhb.com.my 23 738
digi.com.my 24 178
tm.com.my 24 210
celcom.com.my 24 575
maxis.com.my 27 779
orientaldaily.com.my 28 458
nst.com.my 28 475
astro.com.my 28 673
hsbc.com.my 28 982